Simultaneous Nadir Overpasses (SNOs) Predictions

Prediction of SNOs between AQUA and METOP-B Satellite Orbit:

Table of predicted SNOs for the next 14.0 days since TLE Epoch: 1/25/2019
Index Date (AQUA) Time (AQUA) Lat,Lon (AQUA) SZA (AQUA ) Date (METOP-B) Time (METOP-B) Lat,Lon (METOP-B) SZA (METOP-B ) Distance(km) Time Diff (sec)
1 01/27/2019 14:16:32 -73.18, 141.41 88.35 01/27/2019 14:15:26 -73.16, 138.61 88.23 89.99 66
2 01/27/2019 15:06:13 73.87, -52.42 92.39 01/27/2019 15:05:51 73.87, -52.40 92.40 0.95 22
3 01/27/2019 15:55:40 -73.96, 115.03 87.53 01/27/2019 15:56:32 -73.93, 115.07 87.56 2.72 52
4 01/30/2019 09:50:55 -73.53,-152.89 88.71 01/30/2019 09:49:44 -73.48,-154.26 88.69 43.49 71
5 01/30/2019 10:40:29 73.86, 14.03 91.64 01/30/2019 10:40:16 73.85, 13.94 91.63 3.50 13
6 01/30/2019 11:29:56 -73.94,-178.51 88.29 01/30/2019 11:30:56 -73.96,-178.47 88.28 1.89 60
7 02/02/2019 05:25:16 -73.79, -87.00 89.22 02/02/2019 05:24:03 -73.75, -87.22 89.24 7.96 73
8 02/02/2019 06:14:45 73.86, 80.46 90.85 02/02/2019 06:14:40 73.87, 80.39 90.86 2.28 5
9 02/02/2019 07:04:12 -73.94,-112.06 89.08 02/02/2019 07:05:21 -73.93,-112.13 89.10 2.37 69
10 02/05/2019 00:59:32 -73.84, -20.68 89.99 02/05/2019 00:58:25 -73.82, -20.65 90.00 2.37 67
11 02/05/2019 01:49:00 73.87, 146.89 90.04 02/05/2019 01:49:03 73.88, 146.84 90.05 1.92 3
12 02/05/2019 02:38:29 -74.04, -45.85 89.80 02/05/2019 02:39:42 -74.05, -45.43 89.82 12.93 73
13 02/07/2019 20:33:48 -73.84, 45.75 90.85 02/07/2019 20:32:49 -73.84, 45.80 90.85 1.86 59
14 02/07/2019 21:23:16 73.88,-146.70 89.19 02/07/2019 21:23:27 73.90,-146.71 89.20 1.96 11




NCC Satellite Simultaneous Nadir Overpasses (SNOs) Prediction Service
